This is the latest recevied weather packets stored in our database for station/object KK4PWJ-13. If no packets are shown the sender has not sent any weather packets the latest 10 day(s).
| Time | Temp. | Humidity | Pressure | Rain* | Wind** | Luminosity | Snow |
|---|---|---|---|---|---|---|---|
| 1777620489 | 10° C | 76% | 1012.8 hPa | 0 mm | - | 0 W/m² | - |
| 1777620187 | 10° C | 76% | 1012.7 hPa | 0 mm | - | 0 W/m² | - |
| 1777619883 | 10° C | 77% | 1012.6 hPa | 0 mm | - | 0 W/m² | - |
| 1777619579 | 10° C | 73% | 1012.8 hPa | 0 mm | - | 0 W/m² | - |
| 1777619273 | 10.56° C | 78% | 1012.8 hPa | 0 mm | - | 0 W/m² | - |
| 1777618968 | 10.56° C | 74% | 1012.9 hPa | 0 mm | - | 0 W/m² | - |
| 1777618663 | 10.56° C | 75% | 1012.8 hPa | 0 mm | - | 0 W/m² | - |
| 1777618358 | 10.56° C | 76% | 1012.9 hPa | 0 mm | - | 0 W/m² | - |
| 1777618056 | 10.56° C | 75% | 1012.8 hPa | 0 mm | - | 0 W/m² | - |
| 1777617752 | 10.56° C | 76% | 1012.8 hPa | 0 mm | - | 0 W/m² | - |
| 1777617452 | 10.56° C | 75% | 1012.8 hPa | 0 mm | - | 0 W/m² | - |
| 1777617150 | 11.11° C | 77% | 1012.7 hPa | 0 mm | - | 0 W/m² | - |
| 1777616845 | 11.11° C | 74% | 1012.8 hPa | 0 mm | - | 0 W/m² | - |
| 1777616541 | 11.11° C | 75% | 1012.7 hPa | 0 mm | - | 0 W/m² | - |
| 1777616236 | 11.11° C | 73% | 1012.7 hPa | 0 mm | - | 0 W/m² | - |
| 1777615934 | 11.11° C | 78% | 1012.7 hPa | 0 mm | - | 0 W/m² | - |
| 1777615631 | 11.11° C | 79% | 1012.7 hPa | 0 mm | - | 0 W/m² | - |
| 1777615328 | 11.11° C | 77% | 1012.8 hPa | 0 mm | - | 0 W/m² | - |
| 1777615026 | 11.11° C | 76% | 1012.7 hPa | 0 mm | - | 0 W/m² | - |
| 1777614723 | 11.11° C | 75% | 1012.6 hPa | 0 mm | - | 0 W/m² | - |
| 1777614418 | 11.11° C | 73% | 1012.6 hPa | 0 mm | - | 0 W/m² | - |
| 1777614114 | 11.11° C | 73% | 1012.5 hPa | 0 mm | - | 0 W/m² | - |
| 1777613809 | 11.11° C | 76% | 1012.5 hPa | 0 mm | - | 0 W/m² | - |
| 1777613507 | 11.11° C | 76% | 1012.4 hPa | 0 mm | - | 0 W/m² | - |
| 1777613203 | 11.11° C | 75% | 1012.4 hPa | 0 mm | - | 0 W/m² | - |
* Rain latest hour (hover to see other rain measurements)
** Current wind speed in m/s (hover to see current wind gust speed)